Вернуться в каталог

SL-14 DEB

АктивенPO
NORAD 45309·DEBRIS·🇷🇺 Russia

Запущен Aug 15, 1991 с Plesetsk Cosmodrome

Loading…

Ближайшие Пролёты (ближайшие 24 часа)

TLE

СвежийSource: Space-Track

Эпоха: Sep 13, 2026, 14:05 UTC

1 45309U 91056AX  26256.58688808  .00004248  00000-0  93676-2 0  9995
2 45309  82.6198 100.6889 0110390 127.4590 233.6641 13.25653018315379

Отслеживайте SL-14 DEB в реальном времени с AllMySat

Download on the App Store